Meteo pe oră la Aarwangen

Astăzi, 13 Iunie, Duminică

Timp Temperatura Precipitaţii Vânt Presiune Umiditate
00:00 +16°C° 0 mm 1 m/s 724 mmHg 95%
01:00 +15°C° 0 mm 0 m/s 724 mmHg 95%
02:00 +14°C° 0 mm 0 m/s 724 mmHg 96%
03:00 +14°C° 0 mm 0 m/s 724 mmHg 96%
04:00 +15°C° 0 mm 1 m/s 724 mmHg 97%
05:00 +16°C° 0 mm 1 m/s 724 mmHg 95%
06:00 +18°C° 0 mm 1 m/s 724 mmHg 93%
07:00 +18°C° 0 mm 1 m/s 725 mmHg 90%
08:00 +20°C° 0 mm 1 m/s 725 mmHg 83%
09:00 +20°C° 0 mm 2 m/s 725 mmHg 75%
10:00 +23°C° 0 mm 2 m/s 725 mmHg 67%
11:00 +24°C° 0 mm 2 m/s 725 mmHg 62%
12:00 +25°C° 0 mm 3 m/s 725 mmHg 57%
13:00 +26°C° 0 mm 3 m/s 725 mmHg 51%
14:00 +26°C° 0 mm 3 m/s 725 mmHg 51%
15:00 +26°C° 0 mm 3 m/s 724 mmHg 50%
16:00 +26°C° 0 mm 3 m/s 724 mmHg 50%
17:00 +25°C° 0 mm 3 m/s 724 mmHg 57%
18:00 +22°C° 0 mm 3 m/s 724 mmHg 65%
19:00 +21°C° 0 mm 2 m/s 724 mmHg 72%
20:00 +19°C° 0 mm 2 m/s 724 mmHg 78%
21:00 +17°C° 0 mm 2 m/s 724 mmHg 83%
22:00 +15°C° 0 mm 2 m/s 724 mmHg 89%
23:00 +14°C° 0 mm 2 m/s 724 mmHg 90%

Mâine, 14 Iunie, Luni

Timp Temperatura Precipitaţii Vânt Presiune Umiditate
00:00 +14°C° 0 mm 1 m/s 723 mmHg 91%
01:00 +13°C° 0 mm 1 m/s 723 mmHg 93%
02:00 +12°C° 0 mm 1 m/s 723 mmHg 93%
03:00 +12°C° 0 mm 1 m/s 723 mmHg 93%
04:00 +11°C° 0 mm 1 m/s 723 mmHg 93%
05:00 +13°C° 0 mm 1 m/s 723 mmHg 88%
06:00 +14°C° 0 mm 1 m/s 723 mmHg 83%
07:00 +15°C° 0 mm 1 m/s 723 mmHg 78%
08:00 +18°C° 0 mm 1 m/s 723 mmHg 71%
09:00 +19°C° 0 mm 2 m/s 723 mmHg 64%
10:00 +21°C° 0 mm 2 m/s 723 mmHg 57%
11:00 +24°C° 0 mm 2 m/s 723 mmHg 53%
12:00 +25°C° 0 mm 2 m/s 722 mmHg 48%
13:00 +27°C° 0 mm 2 m/s 722 mmHg 43%
14:00 +27°C° 0 mm 2 m/s 722 mmHg 43%
15:00 +27°C° 0 mm 2 m/s 722 mmHg 42%
16:00 +27°C° 0 mm 2 m/s 722 mmHg 42%
17:00 +26°C° 0 mm 2 m/s 722 mmHg 52%
18:00 +25°C° 0 mm 1 m/s 721 mmHg 62%
19:00 +23°C° 0 mm 1 m/s 721 mmHg 72%
20:00 +21°C° 0 mm 1 m/s 721 mmHg 78%
21:00 +19°C° 0 mm 1 m/s 721 mmHg 83%
22:00 +16°C° 0 mm 1 m/s 721 mmHg 89%
23:00 +16°C° 0 mm 1 m/s 721 mmHg 90%

Poimâine, 15 Iunie, Marţi

Timp Temperatura Precipitaţii Vânt Presiune Umiditate
00:00 +15°C° 0 mm 1 m/s 721 mmHg 91%
01:00 +15°C° 0 mm 1 m/s 721 mmHg 92%
02:00 +14°C° 0 mm 1 m/s 721 mmHg 93%
03:00 +14°C° 0 mm 1 m/s 721 mmHg 94%
04:00 +14°C° 0 mm 1 m/s 721 mmHg 94%
05:00 +15°C° 0 mm 1 m/s 721 mmHg 90%
06:00 +15°C° 0 mm 0 m/s 721 mmHg 85%
07:00 +17°C° 0 mm 0 m/s 722 mmHg 81%
08:00 +21°C° 0 mm 1 m/s 722 mmHg 72%
09:00 +23°C° 0 mm 1 m/s 722 mmHg 63%
10:00 +25°C° 0 mm 1 m/s 722 mmHg 55%
11:00 +26°C° 0 mm 1 m/s 722 mmHg 50%
12:00 +28°C° 0 mm 1 m/s 722 mmHg 45%
13:00 +29°C° 0 mm 2 m/s 721 mmHg 40%
14:00 +29°C° 0 mm 2 m/s 721 mmHg 40%
15:00 +29°C° 0 mm 2 m/s 721 mmHg 41%
16:00 +29°C° 0 mm 2 m/s 721 mmHg 41%
17:00 +27°C° 0 mm 2 m/s 721 mmHg 51%
18:00 +26°C° 0 mm 1 m/s 721 mmHg 61%
19:00 +24°C° 0 mm 1 m/s 720 mmHg 71%
20:00 +22°C° 0 mm 1 m/s 720 mmHg 75%
21:00 +20°C° 0 mm 1 m/s 720 mmHg 79%
22:00 +19°C° 0 mm 1 m/s 720 mmHg 84%
23:00 +18°C° 0 mm 1 m/s 720 mmHg 85%

16 Iunie, Miercuri

Timp Temperatura Precipitaţii Vânt Presiune Umiditate
00:00 +16°C° 0 mm 1 m/s 720 mmHg 87%
01:00 +16°C° 0 mm 1 m/s 720 mmHg 89%
02:00 +15°C° 0 mm 1 m/s 720 mmHg 89%
03:00 +15°C° 0 mm 1 m/s 720 mmHg 90%
04:00 +15°C° 0 mm 1 m/s 720 mmHg 91%
05:00 +15°C° 0 mm 0 m/s 720 mmHg 86%
06:00 +17°C° 0 mm 0 m/s 720 mmHg 81%
07:00 +18°C° 0 mm 0 m/s 720 mmHg 77%
08:00 +20°C° 0 mm 0 m/s 720 mmHg 69%
09:00 +25°C° 0 mm 1 m/s 720 mmHg 61%
10:00 +27°C° 0 mm 1 m/s 720 mmHg 53%
11:00 +28°C° 0 mm 1 m/s 720 mmHg 48%
12:00 +29°C° 0 mm 1 m/s 720 mmHg 44%
13:00 +31°C° 0 mm 1 m/s 719 mmHg 39%
14:00 +31°C° 0 mm 1 m/s 719 mmHg 38%
15:00 +31°C° 0 mm 1 m/s 719 mmHg 37%
16:00 +31°C° 0 mm 1 m/s 719 mmHg 35%
17:00 +29°C° 0 mm 1 m/s 718 mmHg 46%
18:00 +28°C° 0 mm 1 m/s 718 mmHg 56%
19:00 +24°C° 0 mm 0 m/s 718 mmHg 67%
20:00 +24°C° 0 mm 1 m/s 718 mmHg 70%
21:00 +22°C° 0 mm 1 m/s 718 mmHg 74%
22:00 +20°C° 0 mm 1 m/s 718 mmHg 78%
23:00 +20°C° 0 mm 1 m/s 718 mmHg 80%

17 Iunie, Joi

Timp Temperatura Precipitaţii Vânt Presiune Umiditate
00:00 +19°C° 0 mm 1 m/s 718 mmHg 82%
01:00 +19°C° 0 mm 1 m/s 718 mmHg 84%
02:00 +18°C° 0 mm 1 m/s 718 mmHg 84%
03:00 +18°C° 0 mm 1 m/s 718 mmHg 85%
04:00 +18°C° 0 mm 1 m/s 718 mmHg 86%
05:00 +19°C° 0 mm 1 m/s 718 mmHg 82%
06:00 +20°C° 0 mm 1 m/s 719 mmHg 77%
07:00 +22°C° 0 mm 1 m/s 719 mmHg 73%
08:00 +24°C° 0 mm 1 m/s 719 mmHg 66%
09:00 +26°C° 0 mm 1 m/s 719 mmHg 59%
10:00 +28°C° 0 mm 1 m/s 719 mmHg 52%
11:00 +29°C° 0 mm 1 m/s 719 mmHg 48%
12:00 +31°C° 0 mm 1 m/s 719 mmHg 44%
13:00 +32°C° 0 mm 1 m/s 718 mmHg 40%
14:00 +32°C° 0 mm 2 m/s 718 mmHg 39%
15:00 +32°C° 0 mm 2 m/s 718 mmHg 38%
16:00 +32°C° 0 mm 2 m/s 717 mmHg 37%
17:00 +31°C° 0 mm 2 m/s 717 mmHg 47%
18:00 +29°C° 0 mm 2 m/s 717 mmHg 57%
19:00 +27°C° 0 mm 2 m/s 716 mmHg 66%
20:00 +25°C° 0.5 mm 2 m/s 717 mmHg 75%
21:00 +23°C° 0.5 mm 2 m/s 718 mmHg 83%
22:00 +20°C° 0.5 mm 3 m/s 718 mmHg 91%
23:00 +19°C° 0.2 mm 2 m/s 719 mmHg 93%

18 Iunie, Vineri

Timp Temperatura Precipitaţii Vânt Presiune Umiditate
00:00 +18°C° 0.2 mm 2 m/s 719 mmHg 95%
01:00 +19°C° 0.2 mm 1 m/s 719 mmHg 96%
02:00 +18°C° 0.2 mm 1 m/s 719 mmHg 96%
03:00 +18°C° 0.2 mm 1 m/s 719 mmHg 97%
04:00 +18°C° 0.2 mm 1 m/s 719 mmHg 97%
05:00 +19°C° 0.2 mm 1 m/s 719 mmHg 95%
06:00 +18°C° 0.2 mm 0 m/s 719 mmHg 94%
07:00 +19°C° 0.2 mm 0 m/s 719 mmHg 92%
08:00 +20°C° 0.1 mm 0 m/s 719 mmHg 86%
09:00 +23°C° 0.1 mm 1 m/s 719 mmHg 79%
10:00 +25°C° 0.1 mm 1 m/s 720 mmHg 73%
11:00 +25°C° 0.4 mm 1 m/s 720 mmHg 72%
12:00 +26°C° 0.4 mm 1 m/s 720 mmHg 72%
13:00 +26°C° 0.4 mm 2 m/s 720 mmHg 71%
14:00 +27°C° 0.7 mm 2 m/s 720 mmHg 69%
15:00 +27°C° 0.7 mm 1 m/s 720 mmHg 67%
16:00 +27°C° 0.7 mm 1 m/s 720 mmHg 65%
17:00 +26°C° 0.4 mm 1 m/s 720 mmHg 71%
18:00 +25°C° 0.4 mm 1 m/s 720 mmHg 77%
19:00 +22°C° 0.4 mm 0 m/s 720 mmHg 84%
20:00 +21°C° 0.3 mm 0 m/s 721 mmHg 87%
21:00 +21°C° 0.3 mm 1 m/s 721 mmHg 89%
22:00 +20°C° 0.3 mm 1 m/s 721 mmHg 92%
23:00 +19°C° 0 mm 1 m/s 721 mmHg 93%
Arată mai mult

Formular de consimțământ

Meteoprog și furnizorii noștri de servicii pot stoca și accesa date personale, precum cookies, identificatori de dispozitiv sau alte tehnologii similare pe dispozitivul dumneavoastră și procesa astfel de date pentru a personaliza conținutul și reclamele, dar și pentru a oferi caracteristici de social media și pentru a analiza traficul.

  • Stocarea și/sau accesarea informațiilor pe dispozitivul dumneavoastră

    Cookies, identificatori de dispozitiv sau alte informații pot fi stocate sau accesate pe dispozitiv în scopurile indicate mai sus.

  • Reclame și conținut personalizat, evaluarea reclamelor și a conținutului, informații despre audiențe și dezvoltarea produselor

    Reclamele și conținutul pot fi personalizate pe baza unui profil. Pot fi adăugate date suplimentare pentru a personaliza mai bine reclamele și conținutul. Performanța reclamelor și conținutului poate fi măsurată. Pot fi obținute informații despre utilizatorii care au văzut reclamele și conținutul. Aceste date pot fi utilizate pentru a dezvolta sau îmbunătăți experiența utilizatorilor, sistemele și software-ul.

Dând clic pe ‘Sunt de acord’, permiteți utilizarea cookie-urilor menționate, a identificatorilor de dispozitiv, balizelor web sau altor tehnologii similare. Setările pot fi modificate din browser-ul dispozitivului dumneavoastră.

În anumite scopuri, interesele legitime pot prima asupra consimțământului. Puteți citi mai multe informații în acest sens în Politica privind Confidențialitatea Datelor și Cookie.